Regional Weather Roundup
Issued by NWS Cleveland, OH

Home | Current Version | Previous Version | Text Only | Print | Product List | Glossary On
Versions: 1 2 3 4 5 6 7 8 9 10 11 12 13 14 15 16 17 18 19 20 21 22 23 24 25 26 27 28 29 30 31 32 33 34 35 36 37 38 39 40 41 42 43 44 45 46 47 48 49 50
000
ASUS41 KCLE 201612
RWRCLE
OHIO REGIONAL WEATHER ROUNDUP
NATIONAL WEATHER SERVICE WILMINGTON, OH
1100 AM EST TUE FEB 20 2018

NOTE: "FAIR" INDICATES FEW OR NO CLOUDS BELOW 12,000 FEET WITH NO
SIGNIFICANT WEATHER AND/OR OBSTRUCTIONS TO VISIBILITY.

OHZ001>008-015>018-024>027-034-035-043-044-201700-
   NORTHWEST OHIO

CITY           SKY/WX    TMP DP  RH WIND       PRES   REMARKS
DEFIANCE       LGT RAIN  60  58  92 S14       30.03R FOG
FINDLAY        CLOUDY    67  56  67 SW21G35   30.05R
TOLEDO EXPRESS RAIN      62  60  93 SW13G22   30.03R FOG
TOLEDO EXEC    CLOUDY    63  58  83 SW13      30.04R
LIMA           CLOUDY    66  58  75 SW22G38   30.05R
$$

OHZ009>014-019>023-028>033-038-089-201700-
   NORTHEAST OHIO

CITY           SKY/WX    TMP DP  RH WIND       PRES   REMARKS
CLE-HOPKINS    CLOUDY    70  57  63 S16G26    30.09F
CLE-LAKEFRONT  CLOUDY    70  55  59 S21G26    30.06F
CUY CO. ARPT   PTSUNNY   70  59  68 SW14      30.09S
LORAIN-ELYRIA  PTSUNNY   67  53  61 SW15G28   30.07F
ASHTABULA      FAIR      67  57  70 SW15G33   30.10F
AKRON-CANTON   PTSUNNY   67  55  65 SW22G32   30.14F
WOOSTER        FAIR      67  57  70 SW20G30   30.13F
MANSFIELD      PTSUNNY   67  57  70 S29G45    30.11S
YOUNGSTOWN     PTSUNNY   67  56  67 S17G33    30.15F
$$

OHZ042-051>053-060>062-070>072-077>081-201700-
  SOUTHWEST OHIO

CITY           SKY/WX    TMP DP  RH WIND       PRES   REMARKS
CINC-COVINGTON PTSUNNY   70  57  63 S24G39    30.15R
CINC-LUNKEN    FAIR      73  57  57 SW20G29   30.14F
HAMILTON       FAIR      71  57  61 SW12G25   30.14S
DAYTON         PTSUNNY   69  58  67 S26G38    30.11S
WRIGHT-PAT AFB MOSUNNY   72  55  56 SW30G37   30.13R
DAYTON GENERAL FAIR      70  56  61 SW20G35   30.12S
WILMINGTON     FAIR      67  59  75 S26G37    30.15S
$$

OHZ036-037-039>041-045>050-054>059-063>069-073>076-082>088-201700-
  CENTRAL AND SOUTHEAST OHIO

CITY           SKY/WX    TMP DP  RH WIND       PRES   REMARKS
COLUMBUS       CLOUDY    69  59  70 S20G32    30.15F
OSU AIRPORT    PTSUNNY   68  59  73 SW24G30   30.13F
BOLTON FIELD   MOSUNNY   68  59  73 SW20G33   30.16F
RICKENBACK AFB FAIR      69  59  70 SW21G36   30.15F
NEWARK         FAIR      69  57  65 SW15G23   30.16F
MARION         FAIR      65  56  72 SW23G33   30.11R
LANCASTER      FAIR      70  57  63 SW16G26   30.17F
ZANESVILLE     FAIR      71  55  56 SW16G23   30.19F
NEW PHILLY     FAIR      69  55  60 VRB7G16   30.18F
$$




USA.gov is the U.S. government's official web portal to all federal, state and local government web resources and services.